ARG1677 SAEZ-SAZS

Flight info

Callsign ARG1677
Flight time N/A
Altitude 34000
Route TORUL1 TORUL UT654 ORERA ORERA1Q
Aircraft B38M/M-SDE1FGHILORVWXY/HB1

Departure

Time 2026-04-28 21:02
Airport Ezeiza International Airport - Ministro Pistarini (SAEZ)

Arrival

Time N/A
Airport Teniente Luis Candelaria International Airport (SAZS)
Time Latitude Longitude Altitude Speed Heading
2026-04-28 21:01 -34.97648 -58.77010 9209 ft 382 kts 106°
2026-04-28 21:02 -34.98122 -58.73947 9084 ft 358 kts 96°
2026-04-28 21:02 -34.97928 -58.70901 7415 ft 374 kts 76°
2026-04-28 21:02 -34.97121 -58.67740 5873 ft 396 kts 70°
2026-04-28 21:02 -34.96229 -58.64703 5848 ft 363 kts 69°
2026-04-28 21:03 -34.95393 -58.61938 5824 ft 334 kts 69°
2026-04-28 21:03 -34.94598 -58.59352 5438 ft 321 kts 69°
2026-04-28 21:03 -34.93817 -58.56826 4793 ft 318 kts 69°
2026-04-28 21:03 -34.93032 -58.54298 3980 ft 320 kts 68°
2026-04-28 21:04 -34.92143 -58.51835 3271 ft 314 kts 52°
2026-04-28 21:04 -34.90649 -58.49997 2870 ft 294 kts 37°
2026-04-28 21:04 -34.89180 -58.48460 2896 ft 268 kts 36°
2026-04-28 21:04 -34.87829 -58.46978 2617 ft 258 kts 47°
2026-04-28 21:05 -34.87136 -58.45007 2363 ft 252 kts 82°
2026-04-28 21:05 -34.87444 -58.43076 2396 ft 226 kts 122°
2026-04-28 21:05 -34.88617 -58.41982 2067 ft 207 kts 174°
2026-04-28 21:05 -34.89834 -58.42280 1948 ft 171 kts 226°
2026-04-28 21:06 -34.90381 -58.43388 1783 ft 145 kts 259°
2026-04-28 21:06 -34.90568 -58.44562 1673 ft 139 kts 267°
2026-04-28 21:06 -34.90574 -58.45764 1489 ft 147 kts 282°
2026-04-28 21:06 -34.90285 -58.46940 1317 ft 145 kts 289°
2026-04-28 21:07 -34.89931 -58.48064 1189 ft 142 kts 294°
2026-04-28 21:07 -34.89521 -58.49183 1209 ft 146 kts 295°
2026-04-28 21:07 -34.89059 -58.50268 1008 ft 142 kts 307°
2026-04-28 21:07 -34.88309 -58.50932 867 ft 131 kts 339°
2026-04-28 21:08 -34.87279 -58.51163 808 ft 161 kts 345°
2026-04-28 21:08 -34.86194 -58.51531 590 ft 157 kts 341°
2026-04-28 21:08 -34.85194 -58.51891 385 ft 146 kts 343°
2026-04-28 21:08 -34.84218 -58.52220 217 ft 146 kts 344°
2026-04-28 21:09 -34.83240 -58.52559 106 ft 143 kts 343°
2026-04-28 21:09 -34.82375 -58.52860 86 ft 112 kts 343°
2026-04-28 21:09 -34.81832 -58.53048 85 ft 58 kts 344°
2026-04-28 21:09 -34.81463 -58.53174 85 ft 53 kts 343°
2026-04-28 21:10 -34.81150 -58.53288 88 ft 32 kts 343°
2026-04-28 21:10 -34.80976 -58.53352 86 ft 26 kts 342°
2026-04-28 21:10 -34.80882 -58.53490 81 ft 25 kts 262°
2026-04-28 21:10 -34.80805 -58.53659 76 ft 27 kts 343°
2026-04-28 21:11 -34.80617 -58.53712 74 ft 28 kts 340°
2026-04-28 21:11 -34.80426 -58.53708 70 ft 29 kts 25°
2026-04-28 21:11 -34.80269 -58.53557 76 ft 30 kts 44°
2026-04-28 21:11 -34.80122 -58.53377 70 ft 30 kts 42°
2026-04-28 21:12 -34.79998 -58.53203 74 ft 25 kts 77°
2026-04-28 21:12 -34.79997 -58.53085 77 ft 0 kts 91°